カタログに戻る

OPS 7869

DMSP 4B F1

運用中気象SSO
NORAD 3266·PAYLOAD·🇺🇸 United States

打ち上げ May 23, 1968 から Vandenberg Space Force Base

Loading…

次のパス (今後24時間)

TLE

最新Source: Space-Track

元期: Sep 14, 2026, 00:15 UTC

1 03266U 68042A   26257.01051326  .00000022  00000-0  31681-4 0  9994
2 03266  98.5576  84.3606 0053356  48.0682 312.5023 14.15910476925703

AllMySatでOPS 7869をリアルタイム追跡

Download on the App Store